User: anonymous   Login
Location: Zagreb
(45.8000°N, 16.0000°E)
Time: 18:16:08
(UTC+02:00)
Language:

UWE-3 - Orbit

View from above orbital plane
View from above orbital plane
View from above satellite
View from above satellite

Ground track
Ground track

The orbit data is extracted from the following two-line orbital elements,

1 39446U 13066AG  20262.46297607  .00000176  00000-0  29981-4 0  9992
2 39446  97.6063 247.0182 0070177   7.6805 352.5464 14.78586333366902
Epoch (UTC): 18 September 2020 11:06:41
Eccentricity: 0.0070177
inclination: 97.6063°
perigee height: 584 km
apogee height: 683 km
right ascension of ascending node: 247.0182°
argument of perigee: 7.6805°
revolutions per day: 14.78586333
mean anomaly at epoch: 352.5464°
orbit number at epoch: 36690

The dashed part of the orbit path shows where the satellite is in the earth's shadow,  

DLR